Preview of NWS' New Version of Forecast
This preview is not operational and should not be used for support decisions.

Regional Weather Roundup (RWR)

Issued by National Weather Service (NWS)

                            
000
ASUS42 KTBW 221718
RWRFL 
FLORIDA REGIONAL WEATHER ROUNDUP
NATIONAL WEATHER SERVICE TAMPA BAY RUSKIN FL
100 PM EDT SUN SEP 22 2019

NOTE: "FAIR" INDICATES FEW OR NO CLOUDS BELOW 12,000 FEET WITH NO
SIGNIFICANT WEATHER AND/OR OBSTRUCTIONS TO VISIBILITY.

FLZ001>010-012>015-112-114-115-221800-
PANHANDLE FLORIDA
  
CITY           SKY/WX    TMP DP  RH WIND       PRES   REMARKS
PENSACOLA      FAIR      87  59  38 E10G17    30.13F                  
PENSACOLA NAS  FAIR      88  60  38 E13       30.13F                  
MILTON NAS     FAIR      87  57  35 E9G18     30.14F                  
CRESTVIEW      FAIR      87  60  40 SE5       30.16F                  
DUKE FIELD     FAIR      85  59  41 CALM      30.14F                  
TRI COUNTY     PTSUNNY   86  61  42 NE7       30.16F                  
PANAMA CITY    FAIR      87  59  38 E8        30.14F                  
TYNDALL AFB    FAIR      85  64  48 E9        30.13F                  
APALACHICOLA   PTSUNNY   84  68  58 E13G20    30.15S                  

STATION/POSITION SKY/WX   TEMP    WIND        PRES    WAVE   SWELL
                          AIR SEA DIR/SP/G            HT/PER HT/PER
                          (F)     (DEG/KT/KT) (MB)    (FT/S) (FT/S)
30.1N   87.6W              81 84   80/ 16/ 17 1020.6F
29.2N   88.2W              83      90/ 12/ 16 1019.9F   5/ 7   3/ 7
28.8N   86.0W                 84  100/ 14/ 17 1019.8F
PANAMA CITY BEAC           81 85   60/  6/ 12 1021.5
TOWER C                    79     100/ 15/ 17 1020.7F
28.5N   84.5W              81      80/ 12/ 16 1020.2F   4/ 6   3/ 6

$$
FLZ011-016>038-118-127-128-134-139-239-221800-
NORTH FLORIDA
  
CITY           SKY/WX    TMP DP  RH WIND       PRES   REMARKS
MARIANNA       FAIR      84  61  45 E6G16     30.15F                  
TALLAHASSEE    FAIR      85  65  51 E10       30.15F                  
PERRY          CLOUDY    83  68  59 E7        30.16F                  
LIVE OAK       PTSUNNY   84  63  48 E6        30.16F                  
CROSS CITY       N/A     87  67  51 NE10      30.13F                  
LAKE CITY      PTSUNNY   82  64  54 E5        30.16F                  
GAINESVILLE    PTSUNNY   87  65  47 NE12      30.16F                  
WILLISTON      FAIR      86  64  48 E9        30.13F                  
PALATKA        PTSUNNY   82  63  51 E13G21    30.15F                  
MAYPORT NAS    CLOUDY    84  67  56 E15       30.16F                  
JACKSONVILLE   PTSUNNY   85  64  49 E14       30.16F                  
JAX NAS        PTSUNNY   84  66  54 E14       30.16F                  
JAX CECIL      PTSUNNY   88  68  51 NE9G18    30.16F                  
FERNANDINA BEA FAIR      84  66  54 NE14      30.17F                  
ST AUGUSTINE   FAIR      81  32  16 E15       30.17F                  
PALM COAST     MOSUNNY   84  64  51 E12       30.15F                  

STATION/POSITION SKY/WX   TEMP    WIND        PRES    WAVE   SWELL
                          AIR SEA DIR/SP/G            HT/PER HT/PER
                          (F)     (DEG/KT/KT) (MB)    (FT/S) (FT/S)
SHELL POINT      NOT AVBL
KEATON BEACH               81      80/  8/  9 1020.8F
CEDAR KEY                  80     110/ 11/ 11 1020.7F
FERNANDINA                 88 80   40/  5/ 10 1022.7F
30.7N   81.3W                 81                N/A     4/ 6   2/13
MAYPORT                    80 81   60/ 13/ 15 1022.2F
31.4N   80.9W              79 81   70/ 12/ 16 1021.8F   4/13   3/13
ST AUGUSTINE               80 81   90/ 12/ 14 1021.6F

$$
FLZ040-043>046-052-053-057-058-063-144-221800-
INTERIOR CENTRAL FLORIDA
  
CITY           SKY/WX    TMP DP  RH WIND       PRES   REMARKS
OCALA          FAIR      86  64  47 E13       30.13F                  
LEESBURG       FAIR      89  65  44 E13       30.13F                  
SANFORD        FAIR      86  63  45 E18G25    30.13S                  
ORLANDO EXEC   FAIR      84  64  50 E13       30.12F                  
ORLANDO INTL   PTSUNNY   85  65  51 E15G22    30.11F                  
KISSIMMEE      PTSUNNY   85  68  56 E13G21    30.11F                  
WINTER HAVEN   PTSUNNY   86  65  49 E15       30.11F                  
LAKELAND       MOSUNNY   86  64  48 E17       30.11F                  
BARTOW         MOSUNNY   88  64  45 E20       30.09F                  
SEBRING        CLOUDY    85  66  53 NE15G24   30.09F                  
OKEECHOBEE     PTSUNNY   82  64  54 NE9G16    30.08S                  

$$
FLZ041-047-054-059-064-141-147-221800-
EAST CENTRAL FLORIDA
  
CITY           SKY/WX    TMP DP  RH WIND       PRES   REMARKS
ORMOND BEACH   MOSUNNY   82  64  54 E12G17    30.15F                  
DAYTONA BEACH  PTSUNNY   83  67  58 E14       30.14F                  
DELAND         PTSUNNY   82  64  54 NE12G17   30.13F                  
NEW SMYRNA BEA PTSUNNY   82  66  57 E13       30.15F                  
TITUSVILLE     PTSUNNY   88  66  48 E17       30.13F                  
CAPE CANAVERAL FAIR      85  68  55 E14G20    30.11S                  
PATRICK AFB    FAIR      84  69  60 NE17      30.10F                  
MELBOURNE      LGT RAIN  84  68  58 E16       30.10F                  
VERO BEACH     PTSUNNY   85  65  51 E15G25    30.10F                  
FT PIERCE      FAIR      85  66  53 E15       30.08F                  
STUART         MOSUNNY   84  66  54 E17G25    30.09F                  

STATION/POSITION SKY/WX   TEMP    WIND        PRES    WAVE   SWELL
                          AIR SEA DIR/SP/G            HT/PER HT/PER
                          (F)     (DEG/KT/KT) (MB)    (FT/S) (FT/S)
28.5N   80.2W              80 83   80/ 17/ 21 1020.3F
28.9N   78.5W              79 80   70/ 17/ 23 1020.4F   7/11   5/11
TRIDENT PIER               83 81   60/ 15/ 18 1021.4F
28.4N   80.5W                 81                N/A     5/14   2/14
27.5N   80.2W                 82                N/A     6/14   3/14

$$
FLZ050-056-061-142-242-148-248-149-249-151-251-155-255-
160-260-221800-
WEST CENTRAL FLORIDA
  
CITY           SKY/WX    TMP DP  RH WIND       PRES   REMARKS
CRYSTAL RIVER  FAIR      86  64  48 E13       30.11F                  
INVERNESS      FAIR      86  66  51 E10G16    30.12F                  
BROOKSVILLE    FAIR      87  64  46 E18       30.11F                  
CLEARWATER AIR FAIR      84  64  51 E10G16    30.08F                  
ST PETE CLEARW FAIR      87  65  47 E13       30.08F                  
TAMPA INTL     FAIR      87  63  44 E18       30.09F                  
TAMPA EXEC     FAIR      88  68  51 E10G17    30.09F                  
PLANT CITY     FAIR      88  70  55 E10G20    30.11F                  
MACDILL AFB    FAIR      87  65  48 E16G24    30.07F                  
PETER O KNIGHT CLOUDY    88  66  48 E13G23    30.09F                  
ST PETERSBURG  FAIR      84  68  58 E17       30.07F                  
SARASOTA       FAIR      89  68  49 E15G24    30.04F                  
VENICE         FAIR      88  66  48 E18G26    30.05F                  

STATION/POSITION SKY/WX   TEMP    WIND        PRES    WAVE   SWELL
                          AIR SEA DIR/SP/G            HT/PER HT/PER
                          (F)     (DEG/KT/KT) (MB)    (FT/S) (FT/S)
27.3N   84.2W                 84                N/A     6/ 6
CLEARWATER BEACH           82 83   70/ 13/ 17 1019.2
MIDDLE TAMPA BAY           81      90/ 19/ 21 1018.8F
VENICE                     83 84   70/ 12/ 14 1017.9F

$$
FLZ066-069-070-075>078-162-262-165-265-221800-
SOUTHWEST FLORIDA AND KEYS
  
CITY           SKY/WX    TMP DP  RH WIND       PRES   REMARKS
PUNTA GORDA    PTSUNNY   87  67  51 E18G25    30.07F                  
FT MYERS       FAIR      88  67  49 E15G24    30.03F                  
SOUTHWEST INTL FAIR      86  67  52 E22G28    30.04F                  
NAPLES         FAIR      90  70  51 E23       30.02F HX  95           
MARCO ISLAND   CLOUDY    88  70  55 NE15G21   30.03F                  
IMMOKALEE      FAIR      90  66  45 E21G28    30.02F                  
MARATHON       FAIR      82  73  74 NE21G26   29.98F                  
KEY WEST NAS   CLOUDY    84  74  71 NE18G25   29.97F                  
KEY WEST INTL  FAIR      82  74  76 E15G22    29.97F                  

STATION/POSITION SKY/WX   TEMP    WIND        PRES    WAVE   SWELL
                          AIR SEA DIR/SP/G            HT/PER HT/PER
                          (F)     (DEG/KT/KT) (MB)    (FT/S) (FT/S)
NAPLES                     84 83   70/ 12/ 17 1017.1F
26.0N   85.6W              83      60/ 17/ 21 1017.1F   7/ 8
DRY TORTUGAS               82      80/ 27/ 29 1016.2
SAND KEY                   81      70/ 25/ 29 1013.2F
SOMBRERO KEY               82      50/ 23/ 28 1015.1F
LONG KEY                   82                 1014.4F

$$
FLZ067-068-071>074-168-172>174-221800-
SOUTHEAST FLORIDA 
  
CITY           SKY/WX    TMP DP  RH WIND       PRES   REMARKS
W PALM BEACH   PTSUNNY   85  69  58 E23G29    30.06F                  
BOCA RATON     MOSUNNY   88  72  58 E24G31    30.05F                  
FT LAUDER-EXEC LGT RAIN  85  72  65 NE17G26   30.03F                  
FT LAUDERDALE  PTSUNNY   87  71  58 E16G25    30.02F                  
POMPANO BEACH  PTSUNNY   85  71  63 NE20G26   30.04F                  
PEMBROKE PINES FAIR      88  70  55 E20G28    30.04F                  
OPA LOCKA      FAIR      87  68  52 E20G31    30.04F                  
MIAMI          PTSUNNY   85  67  54 NE16G25   30.03F                  
WEST KENDALL   PTSUNNY   85  70  60 E22       30.02F                  
HOMESTEAD      NOT AVBL                                               

STATION/POSITION SKY/WX   TEMP    WIND        PRES    WAVE   SWELL
                          AIR SEA DIR/SP/G            HT/PER HT/PER
                          (F)     (DEG/KT/KT) (MB)    (FT/S) (FT/S)
VIRGINIA KEY               83 82   40/ 16/ 20 1016.8
LAKE WORTH                 81 81   50/ 21/ 24 1019.1F
FOWEY ROCKS                82 83   60/ 22/ 25 1017.1R
SETTLEMENT POINT           80      60/ 20/ 23 1017.5F

$$